KE7JVX-3 Weather Reports


Display with metric or nautical units.
time (UTC)temp
F
wind
direction
speed
MPH
gust
MPH
rain 1hr
in
rain 24hr
in
rain mn
in
humidity
%
barometer
mb
20210227100449 31 252 23.0 32.0 0.00 0.00 0.00 8 1005.2
20210227095529 31 254 23.0 33.0 0.00 0.00 0.00 7 1005.4
20210227095448 31 254 23.0 33.0 0.00 0.00 0.00 7 1005.4
20210227094455 31 254 23.0 29.0 0.00 0.00 0.00 6 1005.5
20210227093448 32 261 20.0 29.0 0.00 0.00 0.00 6 1005.6
20210227092604 32 253 18.0 30.0 0.00 0.00 0.00 4 1005.6
20210227091539 32 242 20.0 27.0 0.00 0.00 0.00 3 1005.6
20210227091448 32 242 20.0 27.0 0.00 0.00 0.00 3 1005.6
20210227090448 32 255 19.0 26.0 0.00 0.00 0.00 1 1005.8
20210227085448 32 248 17.0 25.0 0.00 0.00 0.00 1 1005.8
20210227084449 32 247 16.0 24.0 0.00 0.00 0.00 1005.9
20210227083448 33 245 17.0 27.0 0.00 0.00 0.00 1 1006.0
20210227082616 33 255 20.0 29.0 0.00 0.00 0.00 1 1006.2
20210227081448 34 259 20.0 32.0 0.00 0.00 0.00 1 1006.2
20210227080453 34 248 19.0 30.0 0.00 0.00 0.00 1 1006.1
20210227075449 34 247 21.0 29.0 0.00 0.00 0.00 1 1006.2
20210227074529 34 246 21.0 29.0 0.00 0.00 0.00 1 1006.2
20210227074448 34 246 21.0 29.0 0.00 0.00 0.00 1 1006.2
20210227073452 34 243 18.0 29.0 0.00 0.00 0.00 1 1006.2
20210227072458 34 246 21.0 32.0 0.00 0.00 0.00 1 1006.2
20210227071452 34 250 17.0 29.0 0.00 0.00 0.00 1 1006.3
20210227070451 35 250 19.0 24.0 0.00 0.00 0.00 1 1006.3
20210227065448 36 252 17.0 27.0 0.00 0.00 0.00 1 1006.4
20210227064449 36 245 15.0 26.0 0.00 0.00 0.00 1 1006.5
20210227063455 36 255 18.0 29.0 0.00 0.00 0.00 1 1006.5
20210227062527 36 250 16.0 25.0 0.00 0.00 0.00 1 1006.7
20210227061458 36 245 17.0 24.0 0.00 0.00 0.00 1 1006.7
20210227060449 36 249 16.0 24.0 0.00 0.00 0.00 1 1006.8
20210227055449 36 247 16.0 27.0 0.00 0.00 0.00 1 1007.0
20210227054448 36 244 17.0 26.0 0.00 0.00 0.00 1 1006.9
20210227053449 36 243 14.0 24.0 0.00 0.00 0.00 1 1006.9
20210227052449 36 242 15.0 23.0 0.00 0.00 0.00 1 1007.0
20210227051448 36 243 12.0 19.0 0.00 0.00 0.00 1 1007.0
20210227050454 36 237 10.0 19.0 0.00 0.00 0.00 1 1007.1
20210227045448 36 231 10.0 16.0 0.00 0.00 0.00 1 1007.0
20210227044448 36 235 10.0 21.0 0.00 0.00 0.00 1 1007.0
20210227043448 37 243 14.0 21.0 0.00 0.00 0.00 1 1007.0
20210227042450 37 240 13.0 23.0 0.00 0.00 0.00 1 1006.9
20210227041448 37 241 13.0 21.0 0.00 0.00 0.00 1 1007.0
20210227040448 37 245 13.0 21.0 0.00 0.00 0.00 1 1006.9
20210227035448 37 245 12.0 22.0 0.00 0.00 0.00 1 1007.0
20210227034452 37 246 12.0 20.0 0.00 0.00 0.00 1 1007.1
20210227033449 37 245 13.0 20.0 0.00 0.00 0.00 1 1007.2
20210227032451 37 249 10.0 16.0 0.00 0.00 0.00 1 1007.2
20210227031448 37 236 7.0 13.0 0.00 0.00 0.00 1 1007.2
20210227030448 36 226 5.0 9.0 0.00 0.00 0.00 1 1007.3
20210227025448 37 229 5.0 9.0 0.00 0.00 0.00 1 1007.3
20210227024449 37 235 4.0 11.0 0.00 0.00 0.00 1 1007.4
20210227023448 37 239 5.0 12.0 0.00 0.00 0.00 1 1007.4
20210227022456 39 239 3.0 11.0 0.00 0.00 0.00 1 1007.4
20210227021448 39 244 6.0 11.0 0.00 0.00 0.00 1 1007.4
20210227020448 39 244 5.0 9.0 0.00 0.00 0.00 1 1007.4
20210227015448 39 247 7.0 13.0 0.00 0.00 0.00 1 1007.4
20210227013347 40 260 10.0 12.0 0.00 0.00 0.00 1 1007.4
20210227012405 40 265 9.0 12.0 0.00 0.00 0.00 1 1007.4
20210227011349 41 263 9.0 12.0 0.00 0.00 0.00 1 1007.4
20210227010348 41 269 8.0 11.0 0.00 0.00 0.00 1 1007.4
20210227005411 42 271 7.0 11.0 0.00 0.00 0.00 1 1007.4
20210227004348 43 264 8.0 12.0 0.00 0.00 0.00 1 1007.4
20210227003347 43 257 8.0 11.0 0.00 0.00 0.00 1 1007.4
20210227002400 44 271 7.0 13.0 0.00 0.00 0.00 1 1007.4
20210227001656 47 266 3.0 9.0 0.00 0.00 0.00 1 1007.5
20210227001347 44 262 8.0 12.0 0.00 0.00 0.00 1 1007.4
20210227000349 46 260 6.0 10.0 0.00 0.00 0.00 1 1007.4
20210226235349 47 266 3.0 9.0 0.00 0.00 0.00 1 1007.5
20210226234349 46 258 4.0 9.0 0.00 0.00 0.00 1 1007.5
20210226233348 44 283 1.0 4.0 0.00 0.00 0.00 3 1007.7
20210226232417 45 56 2.0 4.0 0.00 0.00 0.00 6 1007.7
20210226231351 47 96 1.0 6.0 0.00 0.00 0.00 5 1007.8
20210226230348 46 305 1.0 4.0 0.00 0.00 0.00 6 1007.8
20210226225347 45 319 1.0 6.0 0.00 0.00 0.00 7 1007.8
20210226224348 44 291 2.0 7.0 0.00 0.00 0.00 7 1007.8
20210226223357 44 263 4.0 11.0 0.00 0.00 0.00 8 1008.0
20210226222354 45 255 3.0 9.0 0.00 0.00 0.00 7 1008.0
20210226221347 45 301 1.0 9.0 0.00 0.00 0.00 4 1008.1
20210226220348 45 249 5.0 10.0 0.00 0.00 0.00 7 1008.1
20210226215349 44 244 2.0 9.0 0.00 0.00 0.00 8 1008.2
20210226214350 44 246 4.0 10.0 0.00 0.00 0.00 8 1008.3
20210226212924 45 258 5.0 8.0 0.00 0.00 0.00 6 1008.2
20210226211848 45 0 0.0 7.0 0.00 0.00 0.00 6 1008.2
20210226210850 44 242 3.0 12.0 0.00 0.00 0.00 4 1008.3
20210226205848 46 240 3.0 10.0 0.00 0.00 0.00 3 1008.3
20210226204854 49 200 2.0 6.0 0.00 0.00 0.00 1008.5
20210226203852 48 204 1.0 6.0 0.00 0.00 0.00 1 1008.6
20210226202906 46 0 0.0 7.0 0.00 0.00 0.00 1 1008.7
20210226201848 45 32 1.0 8.0 0.00 0.00 0.00 3 1008.9
20210226200848 45 0 0.0 9.0 0.00 0.00 0.00 4 1009.0
20210226195848 45 255 2.0 9.0 0.00 0.00 0.00 1 1009.0
20210226194849 43 104 1.0 5.0 0.00 0.00 0.00 1 1009.1
20210226193848 42 59 3.0 5.0 0.00 0.00 0.00 1 1009.2
20210226192848 42 68 3.0 7.0 0.00 0.00 0.00 1 1009.3
20210226191855 41 94 4.0 8.0 0.00 0.00 0.00 1 1009.5
20210226190850 40 66 2.0 5.0 0.00 0.00 0.00 1 1009.6
20210226185850 40 19 3.0 9.0 0.00 0.00 0.00 1 1009.6
20210226185032 38 32 2.0 8.0 0.00 0.00 0.00 1 1009.7
20210226183848 37 75 2.0 7.0 0.00 0.00 0.00 1 1009.8
20210226182908 37 53 2.0 7.0 0.00 0.00 0.00 1 1009.8
20210226181849 37 61 2.0 8.0 0.00 0.00 0.00 3 1009.8
20210226180852 37 62 4.0 10.0 0.00 0.00 0.00 1009.9
20210226175850 36 68 6.0 12.0 0.00 0.00 0.00 1 1009.8
20210226174849 36 59 5.0 12.0 0.00 0.00 0.00 3 1009.6
20210226173852 36 52 6.0 12.0 0.00 0.00 0.00 5 1009.6
20210226173021 36 59 5.0 11.0 0.00 0.00 0.00 7 1009.5
20210226171851 35 72 4.0 12.0 0.00 0.00 0.00 7 1009.6
20210226170853 35 58 6.0 13.0 0.00 0.00 0.00 7 1009.5
20210226165848 35 57 5.0 11.0 0.00 0.00 0.00 9 1009.4
20210226164854 34 46 5.0 12.0 0.00 0.00 0.00 9 1009.4
20210226163848 34 50 5.0 12.0 0.00 0.00 0.00 10 1009.3
20210226162907 34 41 6.0 12.0 0.00 0.00 0.00 11 1009.3
20210226161848 34 48 4.0 13.0 0.00 0.00 0.00 8 1009.0
20210226160854 33 39 6.0 15.0 0.00 0.00 0.00 6 1009.0
20210226155851 33 41 6.0 17.0 0.00 0.00 0.00 7 1008.9
20210226154851 32 37 8.0 16.0 0.00 0.00 0.00 8 1008.7
20210226153849 31 36 6.0 14.0 0.00 0.00 0.00 14 1008.7
20210226152848 30 35 7.0 14.0 0.00 0.00 0.00 17 1008.7
20210226151850 30 33 5.0 13.0 0.00 0.00 0.00 17 1008.6
20210226150926 31 42 7.0 14.0 0.00 0.00 0.00 18 1008.5
20210226150852 31 42 7.0 14.0 0.00 0.00 0.00 18 1008.5
20210226145850 31 45 6.0 14.0 0.00 0.00 0.00 19 1008.4
20210226144934 30 42 6.0 17.0 0.00 0.00 0.00 19 1008.3
20210226143850 30 40 7.0 13.0 0.00 0.00 0.00 19 1008.2
20210226142939 30 34 10.0 20.0 0.00 0.00 0.00 18 1008.0
20210226141848 30 34 8.0 14.0 0.00 0.00 0.00 18 1008.0
20210226140849 30 31 6.0 12.0 0.00 0.00 0.00 20 1008.0
20210226135848 30 24 7.0 16.0 0.00 0.00 0.00 20 1008.0
20210226134929 30 38 8.0 14.0 0.00 0.00 0.00 19 1007.9
20210226133848 30 32 8.0 13.0 0.00 0.00 0.00 18 1007.8
20210226132852 30 33 6.0 16.0 0.00 0.00 0.00 16 1007.8
20210226131852 30 33 7.0 12.0 0.00 0.00 0.00 15 1007.8
20210226130849 30 32 7.0 12.0 0.00 0.00 0.00 14 1007.8
20210226125852 31 33 6.0 17.0 0.00 0.00 0.00 12 1007.8
20210226125054 31 27 6.0 12.0 0.00 0.00 0.00 10 1007.7
20210226123850 29 33 6.0 13.0 0.00 0.00 0.00 10 1007.7
20210226122900 30 35 8.0 11.0 0.00 0.00 0.00 9 1007.6
20210226121852 30 29 5.0 10.0 0.00 0.00 0.00 5 1007.9
20210226120853 30 31 5.0 9.0 0.00 0.00 0.00 1 1007.8
20210226115849 31 31 4.0 10.0 0.00 0.00 0.00 1 1008.0
20210226115044 30 40 5.0 12.0 0.00 0.00 0.00 1 1007.9
20210226113852 30 31 4.0 9.0 0.00 0.00 0.00 1 1007.8
20210226112936 30 336 2.0 8.0 0.00 0.00 0.00 1 1007.9
20210226111850 30 309 5.0 9.0 0.00 0.00 0.00 1 1007.9
20210226110849 30 309 5.0 11.0 0.00 0.00 0.00 1 1007.9
20210226105851 30 287 8.0 12.0 0.00 0.00 0.00 1 1007.9
20210226104848 30 301 6.0 11.0 0.00 0.00 0.00 1 1007.7
20210226103852 29 311 5.0 8.0 0.00 0.00 0.00 1 1007.8
20210226103047 29 303 5.0 10.0 0.00 0.00 0.00 1 1007.9
20210226101848 30 277 6.0 13.0 0.00 0.00 0.00 1 1007.8
20210226100848 30 278 9.0 14.0 0.00 0.00 0.00 1 1007.8